Location: Albuquerque Trailhead
(34.7934°N, 106.3736°W)
Time: 04:40:45
(UTC+00:00)

Cosmos 2098 Rocket - Pass Details

Date: 20 June 2021
Orbit: 366 x 1176 km, 82.9° (Epoch: 29 July)

Event Time Altitude Azimuth Distance (km) Brightness Sun altitude
Exits shadow 07:54:54 45° 68° (ENE) 1,082 4.4 -30.7°
Drops below altitude 10° 07:58:51 10° 20° (NNE) 2,163 6.7 -30.5°
Sets 08:00:57 0° 15° (NNE) 2,962 7.7 -30.4°
